User: anonymous   Login
Location: ??? ???
(33.4974°N, 35.4618°E)
Time: 14:00:48
(UTC+00:00)
Language:

Cosmos 1812 Rocket - Orbit

View from above orbital plane
View from above orbital plane
View from above satellite
View from above satellite

Ground track
Ground track

The orbit data is extracted from the following two-line orbital elements,

1 17296U 87003B   21016.71216889  .00000074  00000-0  61545-5 0  9992
2 17296  82.5284 240.0779 0018005 220.2207 139.7676 14.83317307816140
Epoch (UTC): 16 January 2021 17:05:31
Eccentricity: 0.0018005
inclination: 82.5284°
perigee height: 606 km
apogee height: 631 km
right ascension of ascending node: 240.0779°
argument of perigee: 220.2207°
revolutions per day: 14.83317307
mean anomaly at epoch: 139.7676°
orbit number at epoch: 81614

The dashed part of the orbit path shows where the satellite is in the earth's shadow,  

DLR